Regional Weather Roundup
Issued by NWS

Home | Current Version | Previous Version | Graphics & Text | Print | Product List | Glossary On
Versions: 1 2 3 4 5 6 7 8 9 10 11 12 13 14 15 16 17 18 19 20 21 22 23 24 25 26 27 28 29 30 31 32 33 34 35 36 37 38 39 40 41 42 43 44 45 46 47 48 49 50
000
ASUS43 KIND 282159
RWRIN

WEATHER ROUNDUP FOR INDIANA
NATIONAL WEATHER SERVICE INDIANAPOLIS IN
600 PM EDT SAT MAR 28 2015

NOTE: "FAIR" INDICATES FEW OR NO CLOUDS BELOW 12,000 FEET WITH NO
SIGNIFICANT WEATHER AND/OR OBSTRUCTIONS TO VISIBILITY.

* - STATION DOES NOT REPORT WEATHER SUCH AS PRECIPITATION OR FOG.

+ - STATION NOT QUALITY CONTROLLED BY THE NATIONAL WEATHER SERVICE.
    USE DATA WITH CAUTION...ESPECIALLY DEWPOINT AND RELATIVE
    HUMIDITY OBSERVATIONS.

INZ001>003-010>013-019-020-282300-
NORTHWEST INDIANA

CITY           SKY/WX    TMP DP  RH WIND       PRES   REMARKS
GARY /AIRPORT/ SUNNY     32   3  29 NE12      30.33S WCI  23

$$

LMZ046-743>745-282300-
SOUTHERN LAKE MICHIGAN

STATION/POSITION TIME  TEMP WIND        PRES
                       AIR  DIR/SP/G
                 (UTC) (F)  (DEG/KT/KT) (MB)
BURNS HARBOR     2100   27  350/  5/  8 1027.4S
MICHIGAN CITY    2100   28  330/  9/ 11   N/A

$$

INZ004-005-014>016-021>024-282300-
NORTH CENTRAL INDIANA

CITY           SKY/WX    TMP DP  RH WIND       PRES   REMARKS
ELKHART        SUNNY     37   0  20 CALM      30.27F
GOSHEN         SUNNY     36   9  32 SW5       30.27F
SOUTH BEND     SUNNY     37  13  37 W8        30.29R

$$

INZ006>009-017-018-025>027-282300-
NORTHEAST INDIANA

CITY           SKY/WX    TMP DP  RH WIND       PRES   REMARKS
ANGOLA *+      SUNNY     34   7  32 CALM      30.26S
FORT WAYNE     SUNNY     37  10  32 NW8       30.29S

$$

INZ028-029-035-036-043>045-051>053-282300-
WEST CENTRAL INDIANA

CITY           SKY/WX    TMP DP  RH WIND       PRES   REMARKS
CRAWFORDSVL +  SUNNY     37   8  30 MISG      30.28S
GREENCASTLE +  SUNNY     37  10  32 CALM      30.28S
LAFAYETTE      SUNNY     38   6  26 E6        30.29S
TERRE HAUTE    SUNNY     41  15  35 N5        30.29S

$$

INZ030>032-037>040-046>048-054>057-064-065-282300-
CENTRAL INDIANA

CITY           SKY/WX    TMP DP  RH WIND       PRES   REMARKS
COLUMBUS       SUNNY     37   9  30 CALM      30.29S
GREENWOOD *+   SUNNY     37   9  30 N5        30.28S
INDIANAPOLIS   SUNNY     39   8  27 CALM      30.26F
-EAGLE CREEK   SUNNY     37  13  37 NW7       30.27S
KOKOMO *+        N/A     36  12  38 CALM      30.29S
MT COMFORT *+  SUNNY     37  -4  17 N6        30.29R
SHELBYVILLE    SUNNY     39  14  36 VRB3      30.28S

$$

INZ033-034-041-042-049-050-058-059-282300-
EAST CENTRAL INDIANA

CITY           SKY/WX    TMP DP  RH WIND       PRES   REMARKS
MUNCIE         SUNNY     34  13  41 VRB3      30.28S

$$

INZ060-061-067>069-081>083-085>088-282300-
SOUTHWEST INDIANA

CITY           SKY/WX    TMP DP  RH WIND       PRES   REMARKS
EVANSVILLE     SUNNY     43  18  36 VRB5      30.30S
HUNTINGBURG *+ SUNNY     41  18  38 N6        30.29S

$$

INZ062-063-066-070>080-084-089>092-282300-
SOUTH CENTRAL AND SOUTHEAST INDIANA

CITY           SKY/WX    TMP DP  RH WIND       PRES   REMARKS
BLOOMINGTON    SUNNY     40  10  29 CALM      30.26S
SEYMOUR +      SUNNY     41  18  38 N6        30.29S

$$




USA.gov is the U.S. government's official web portal to all federal, state and local government web resources and services.